Wind_Speed
13 12 12 13 16 14 9 7 7 8 7 7 6 6 7 7 7 8 9 10 10 10 11 10 10 9 9 9 9 9 9 8 8 8 8 8 8 7 7 7 7 7 7 7 7 8 7 7 7
13 10 11 14 14 11 8 7 7 7 7 6 6 6 6 6 7 8 8 10 10 10 9 9 8 8 8 8 8 8 7 7 7 7 7 7 7 7 7 7 6 6 6 6 6 7 7 6 6
11 10 12 13 10 7 6 6 6 7 7 6 5 5 5 5 6 7 8 9 9 9 9 8 8 7 6 6 6 6 6 6 6 5 6 6 6 6 6 7 6 6 6 6 6 6 6 6 5
10 11 14 11 6 5 6 6 6 6 6 5 5 3 4 5 5 6 7 8 9 8 8 8 7 6 6 5 5 5 5 5 5 5 5 5 5 5 6 6 6 6 5 5 5 5 5 5 5
8 11 11 6 4 4 4 5 5 5 6 6 4 3 3 4 4 5 6 7 7 8 7 7 6 6 5 4 4 4 3 3 4 4 4 4 5 5 4 5 5 5 5 5 4 4 4 4 4
8 10 7 2 2 4 4 4 4 4 5 5 4 3 3 3 3 4 4 5 6 6 7 6 5 4 4 3 3 3 2 2 3 3 3 4 4 4 5 5 5 5 5 5 4 4 4 4 4
7 7 5 1 3 4 3 3 4 4 5 5 4 3 2 2 3 3 4 4 5 5 5 5 5 4 3 3 3 3 2 2 2 2 3 4 4 4 5 5 5 5 4 4 4 4 4 4 4
6 7 5 1 3 3 3 2 2 3 3 3 4 3 2 1 2 3 3 3 3 4 4 4 4 3 3 2 3 3 2 2 2 2 3 3 4 4 4 4 4 4 4 4 4 4 4 4 4
5 6 4 2 4 3 3 2 2 2 3 4 4 4 3 1 1 1 2 2 2 3 3 3 2 2 2 2 2 2 1 1 1 1 2 2 3 3 4 4 4 4 4 4 4 3 3 3 3
5 4 2 2 4 1 2 2 2 2 3 4 4 4 4 2 0 0 1 2 1 1 1 1 1 1 0 0 1 1 0 0 1 1 2 3 3 3 3 3 4 4 4 3 3 3 3 3 3
5 3 3 5 6 2 2 2 2 2 3 4 4 4 4 2 1 1 0 0 0 0 1 0 1 1 1 1 1 1 1 1 1 2 3 3 3 3 3 4 4 4 4 3 3 4 3 3 2
6 7 6 6 6 4 3 2 2 3 3 4 4 4 4 2 1 1 0 1 1 0 0 0 1 1 2 2 2 2 2 2 2 3 3 4 4 4 4 4 4 4 4 4 4 4 4 3 3
8 8 8 8 6 5 3 3 2 2 4 5 5 5 3 2 2 2 1 1 1 1 1 1 1 2 2 2 3 3 2 3 4 4 4 4 5 4 4 4 4 4 4 4 5 5 4 3 3
10 9 9 8 8 6 4 4 4 3 4 5 5 5 4 4 3 2 2 2 2 1 2 2 2 2 3 3 3 3 3 4 4 5 5 5 5 5 5 5 5 5 5 5 5 5 5 4 3
12 11 9 8 8 6 6 6 5 4 5 5 5 5 4 4 4 3 3 3 3 2 2 3 3 3 4 5 5 5 4 5 5 5 6 6 6 6 6 6 6 6 6 5 5 5 5 5 5
11 11 9 8 8 9 8 8 5 4 5 6 5 5 5 4 4 4 4 4 3 3 3 3 4 5 5 6 6 6 6 6 6 7 7 7 7 7 7 7 7 7 7 6 6 6 5 5 5
11 10 10 10 10 9 8 7 6 5 6 6 6 6 6 5 4 4 4 4 4 4 4 4 5 6 7 6 7 7 7 7 7 8 8 8 8 8 8 8 8 8 7 6 6 6 6 6 6
11 11 11 10 11 10 9 8 7 7 8 7 7 6 6 5 5 5 5 5 4 5 6 6 7 7 8 7 8 8 8 8 8 8 9 9 10 9 9 9 9 9 8 7 7 7 7 7 7
15 13 12 11 13 13 11 11 9 9 9 9 8 7 7 6 6 6 6 6 6 6 7 7 8 8 8 8 9 9 9 10 10 9 10 9 10 10 9 9 9 8 8 8 8 8 8 8 8
17 15 14 13 15 14 12 11 12 11 10 11 10 9 8 8 7 6 7 7 7 7 8 8 9 9 9 9 10 10 10 11 11 10 10 9 9 9 8 8 9 9 9 8 8 8 8 8 7
18 17 16 15 15 15 13 12 13 12 11 12 12 11 11 9 9 8 8 8 8 8 8 9 9 9 9 10 10 10 10 10 10 10 10 9 9 9 9 9 9 9 9 9 8 8 8 8 7
19 18 18 17 17 16 14 15 15 15 14 14 14 13 12 11 10 9 9 9 9 9 9 9 9 9 10 10 10 10 11 11 10 10 10 9 9 9 9 10 10 10 9 9 9 8 8 8 8
21 20 20 18 18 17 14 15 15 15 15 14 14 14 13 12 12 11 10 10 10 10 10 10 10 10 11 11 11 11 11 11 11 10 10 9 10 10 10 11 10 10 10 10 9 9 9 9 9
22 21 20 19 18 19 17 16 16 17 17 15 15 16 16 12 12 12 11 11 12 12 11 11 11 11 11 11 11 12 12 12 11 11 11 10 10 10 10 10 10 10 10 10 9 10 10 10 10
24 22 19 18 18 18 16 17 19 17 16 15 16 15 15 12 13 13 12 12 13 13 13 12 12 12 12 12 12 12 13 12 11 11 11 11 11 11 10 10 10 10 10 10 10 11 11 11 11
25 23 20 18 16 16 16 18 19 18 16 14 14 15 15 14 14 14 13 12 14 14 13 12 12 12 13 13 13 13 13 12 11 11 11 12 12 11 10 11 11 11 11 11 11 12 12 12 12
25 24 20 17 15 15 17 17 17 19 18 16 16 16 16 14 14 15 14 12 13 14 14 13 13 13 12 13 12 13 12 11 11 11 11 12 12 11 11 12 11 11 11 11 12 12 12 11 12
24 23 24 24 21 18 16 17 17 18 18 18 17 17 16 15 15 15 14 13 13 14 14 14 14 13 13 13 12 12 11 11 11 11 11 12 12 12 12 12 12 12 11 12 13 12 12 11 11
25 25 25 24 22 19 17 19 19 20 17 17 17 16 16 16 15 15 15 14 14 13 13 14 13 12 12 12 12 12 11 11 12 12 12 12 12 12 12 12 12 12 12 12 12 12 12 12 12
24 25 26 25 24 23 20 18 16 16 15 17 18 18 17 16 15 15 15 14 14 13 14 14 13 12 12 12 12 12 12 12 13 13 13 13 13 12 12 12 12 13 13 12 12 12 13 13 12
Wind_Direction
88 81 79 71 66 66 46 40 40 42 46 55 59 70 83 83 92 98 101 102 106 107 107 107 107 106 107 109 110 106 103 102 100 95 92 91 89 83 83 88 86 85 86 86 82 78 73 72 67
91 86 74 59 56 52 39 28 33 39 43 49 55 67 85 87 97 101 104 107 108 108 111 110 110 109 109 113 112 108 104 101 99 96 95 92 89 87 88 86 83 80 80 80 80 68 67 63 63
99 93 72 59 53 36 23 19 25 33 37 43 53 67 86 94 99 103 108 111 113 109 110 114 111 112 112 115 114 109 106 103 99 95 94 93 91 94 95 92 90 87 85 82 70 66 64 62 64
110 91 73 61 55 23 11 15 24 28 27 28 46 63 89 103 105 107 111 114 116 114 110 111 113 113 114 118 117 112 110 105 100 95 93 90 87 92 89 83 87 84 81 76 70 65 64 63 60
106 83 76 71 16 360 8 18 20 19 13 15 36 58 94 101 106 115 114 111 114 116 113 112 113 114 116 119 120 115 113 110 103 94 89 84 79 76 76 71 80 79 78 71 63 61 62 59 54
103 79 69 54 353 359 10 19 6 14 5 15 32 44 50 77 104 115 117 115 115 116 116 111 107 110 117 120 119 117 112 107 99 94 90 83 73 63 62 66 71 71 68 65 59 58 55 54 52
111 92 75 358 333 344 8 21 356 5 6 11 21 30 40 69 89 97 107 122 123 121 121 111 104 102 111 114 109 118 111 103 99 91 82 77 66 59 60 62 56 60 59 55 50 46 40 37 39
127 111 108 256 298 318 338 8 2 349 356 4 16 9 8 86 84 89 108 130 132 131 125 117 104 100 99 100 101 104 103 95 91 82 70 59 56 56 53 53 49 49 46 42 39 37 36 32 33
139 119 124 224 263 294 317 334 326 342 345 357 1 4 4 57 99 102 141 143 142 136 129 120 108 101 102 90 89 93 95 90 67 59 55 41 40 44 46 40 39 30 30 29 26 26 27 29 26
163 111 129 228 246 258 288 308 326 334 340 345 355 4 9 357 342 136 161 162 151 136 129 124 132 130 129 88 67 44 335 37 10 12 16 16 17 23 21 18 19 17 12 11 11 5 6 9 11
187 176 164 226 245 226 241 285 301 327 332 341 347 345 353 342 353 345 304 217 102 146 123 160 253 266 287 298 324 312 301 308 329 341 353 348 351 351 353 355 3 8 4 358 354 351 353 349 340
203 211 206 219 238 227 223 248 298 324 324 334 347 337 339 327 337 346 325 354 348 4 27 301 278 280 288 299 296 300 284 280 293 311 326 335 339 340 338 344 349 346 348 350 343 342 342 343 339
210 215 226 228 233 233 237 256 283 321 327 337 345 341 335 332 350 355 353 1 15 25 11 349 320 284 286 301 308 308 302 297 301 307 315 324 329 326 329 332 336 333 331 331 330 333 335 340 349
209 216 227 229 230 234 241 257 278 310 319 323 325 325 322 322 329 335 336 349 352 355 354 338 326 310 307 309 307 304 304 305 308 312 314 319 323 316 315 320 323 325 320 316 320 325 324 323 321
210 216 227 233 232 234 237 241 257 293 313 314 319 319 318 319 318 320 324 334 337 338 326 321 318 317 316 307 302 300 297 297 304 311 313 313 316 312 308 312 315 315 310 303 302 306 311 314 311
210 216 223 237 237 238 242 243 242 279 304 307 311 314 319 325 318 317 314 323 320 323 322 317 322 315 313 310 307 301 295 295 299 304 305 307 309 307 307 309 310 311 304 295 294 298 302 304 302
212 219 220 229 241 244 251 249 255 293 297 294 300 307 310 311 315 312 310 318 319 310 313 313 314 308 305 307 304 300 297 295 300 302 300 300 304 304 304 308 308 306 300 290 293 297 301 295 297
213 225 224 226 242 242 252 253 245 273 286 289 293 300 304 301 309 306 304 311 318 315 309 309 310 307 303 305 305 299 297 295 296 297 300 298 301 301 301 305 305 305 301 292 289 290 294 294 295
206 213 222 224 239 242 244 253 248 256 277 281 281 288 290 290 303 306 302 301 304 308 310 311 308 303 302 304 305 299 297 298 298 294 295 299 301 299 301 304 303 306 297 289 287 285 293 294 292
209 208 215 219 235 242 242 244 258 258 267 278 277 282 291 291 290 299 302 304 305 307 308 309 308 305 306 306 307 303 301 302 301 298 298 303 303 306 309 304 304 305 302 293 290 289 292 295 294
215 213 212 221 236 242 243 246 253 262 263 268 272 275 280 285 288 293 296 302 307 310 308 306 309 312 311 308 307 307 305 303 304 302 299 302 302 304 311 309 304 301 299 295 289 291 294 296 297
217 215 213 219 230 238 239 248 251 253 258 265 265 267 274 281 285 289 294 301 304 304 305 306 309 308 308 310 307 306 304 301 295 296 298 299 298 298 304 305 304 302 299 296 290 289 288 290 295
216 217 220 221 228 234 238 244 253 256 258 263 267 263 266 273 283 285 287 293 298 301 301 301 303 304 306 305 302 302 301 300 295 292 292 295 298 298 300 302 300 300 297 293 288 285 289 291 291
214 218 222 225 228 234 232 242 253 246 252 255 264 267 265 267 279 284 283 285 291 295 296 295 296 298 302 303 300 297 297 295 292 291 286 286 293 295 298 300 297 297 297 291 287 285 290 292 292
216 216 222 228 231 238 236 238 249 251 249 255 264 268 270 269 276 282 282 281 287 290 291 293 293 293 296 298 297 296 296 298 293 286 286 286 288 293 294 297 296 295 295 294 292 290 289 289 289
220 218 217 224 235 241 237 237 244 248 255 255 259 263 268 271 276 279 279 277 281 285 288 291 293 292 294 297 298 299 300 299 295 291 286 284 286 289 291 296 296 295 294 293 293 294 292 290 287
221 218 214 217 228 243 239 234 243 247 252 253 255 260 263 265 270 277 280 280 279 280 285 288 292 291 292 295 298 301 299 295 292 291 290 286 285 285 287 291 295 293 293 294 293 294 293 290 288
221 218 210 214 224 231 238 241 235 247 254 256 254 256 259 264 265 271 276 280 279 278 282 286 287 285 286 290 295 300 298 295 292 291 291 288 284 286 289 290 291 293 294 294 296 293 290 288 288
218 215 215 219 223 229 237 239 236 237 247 255 255 256 257 261 263 268 272 278 282 282 285 285 284 284 286 285 290 296 298 296 295 294 294 293 291 289 292 293 291 291 293 295 297 294 290 288 285
223 218 218 219 223 225 239 250 243 237 246 248 250 252 252 256 260 267 269 272 277 281 284 280 279 282 282 283 286 291 295 297 297 297 297 297 292 288 290 294 294 293 293 292 297 297 292 288 284
Height
5895 5895 5895 5894 5894 5895 5896 5896 5894 5893 5893 5892 5891 5891 5890 5890 5890 5892 5889 5888 5889 5889 5890 5891 5892 5892 5893 5893 5893 5893 5893 5893 5893 5893 5893 5893 5893 5894 5894 5894 5894 5894 5894 5894 5894 5894 5894 5894 5894
5896 5897 5897 5895 5895 5897 5898 5897 5896 5895 5895 5893 5893 5893 5892 5891 5891 5891 5890 5891 5891 5891 5892 5893 5893 5894 5894 5894 5895 5895 5895 5895 5895 5895 5895 5895 5895 5895 5895 5895 5895 5895 5895 5896 5896 5896 5896 5896 5895
5898 5898 5898 5897 5898 5900 5900 5899 5897 5896 5896 5895 5895 5894 5894 5893 5893 5892 5892 5892 5893 5893 5893 5894 5895 5896 5896 5896 5896 5896 5897 5897 5897 5897 5897 5897 5897 5897 5896 5896 5897 5897 5897 5897 5897 5897 5897 5897 5897
5900 5899 5899 5901 5902 5902 5901 5900 5899 5898 5897 5897 5896 5896 5895 5895 5894 5894 5894 5894 5895 5895 5895 5896 5896 5897 5897 5898 5898 5898 5898 5898 5898 5898 5898 5898 5898 5898 5898 5898 5898 5898 5898 5898 5898 5898 5898 5898 5898
5900 5900 5901 5904 5904 5903 5902 5901 5900 5900 5899 5898 5898 5897 5896 5896 5896 5896 5896 5896 5896 5896 5897 5897 5898 5898 5899 5899 5899 5899 5899 5899 5899 5899 5899 5899 5899 5900 5899 5899 5899 5899 5899 5899 5899 5899 5899 5899 5898
5901 5901 5903 5904 5905 5905 5904 5903 5902 5901 5900 5899 5898 5898 5898 5898 5897 5897 5898 5898 5898 5898 5898 5899 5899 5899 5900 5900 5900 5900 5900 5900 5900 5900 5901 5901 5901 5901 5901 5900 5900 5900 5900 5900 5900 5900 5900 5899 5899
5903 5902 5904 5906 5905 5906 5905 5904 5903 5902 5901 5900 5900 5899 5899 5899 5899 5899 5899 5899 5899 5899 5900 5900 5900 5900 5901 5901 5901 5901 5901 5901 5902 5902 5902 5902 5902 5902 5902 5901 5901 5901 5901 5901 5901 5901 5901 5900 5900
5903 5904 5905 5907 5907 5906 5906 5905 5904 5903 5902 5902 5901 5901 5900 5900 5900 5900 5900 5900 5900 5901 5901 5901 5901 5902 5902 5902 5902 5902 5902 5902 5903 5903 5903 5903 5903 5903 5903 5902 5902 5902 5902 5902 5902 5902 5901 5901 5901
5904 5905 5906 5907 5907 5907 5906 5906 5905 5904 5903 5903 5903 5902 5902 5901 5901 5901 5901 5902 5902 5902 5902 5902 5902 5903 5903 5903 5903 5903 5903 5903 5904 5904 5904 5904 5904 5904 5904 5903 5903 5903 5903 5902 5902 5902 5902 5901 5901
5904 5905 5906 5907 5907 5907 5907 5906 5905 5905 5904 5904 5903 5902 5902 5902 5902 5902 5902 5903 5903 5903 5903 5903 5903 5904 5904 5904 5904 5904 5904 5904 5904 5905 5905 5905 5905 5905 5905 5904 5904 5904 5903 5903 5903 5903 5902 5902 5902
5904 5905 5906 5907 5907 5907 5907 5907 5906 5905 5905 5904 5904 5903 5903 5903 5903 5903 5903 5903 5903 5903 5904 5904 5904 5904 5905 5905 5905 5905 5905 5905 5905 5905 5905 5905 5905 5905 5905 5905 5904 5904 5904 5903 5903 5903 5902 5902 5902
5904 5905 5906 5907 5907 5908 5907 5907 5907 5907 5906 5905 5905 5904 5904 5904 5904 5904 5904 5904 5904 5904 5904 5905 5905 5905 5905 5905 5906 5906 5906 5906 5906 5906 5906 5906 5906 5905 5905 5905 5905 5904 5904 5903 5903 5903 5903 5902 5902
5904 5905 5905 5906 5907 5907 5908 5907 5907 5908 5907 5906 5905 5905 5905 5905 5905 5904 5904 5905 5905 5905 5905 5905 5905 5906 5906 5906 5906 5906 5906 5906 5906 5906 5906 5906 5906 5906 5905 5905 5904 5904 5904 5903 5903 5903 5903 5902 5902
5902 5904 5905 5906 5907 5907 5908 5907 5907 5908 5908 5907 5907 5906 5906 5906 5906 5905 5905 5906 5905 5905 5906 5906 5906 5906 5906 5906 5906 5907 5906 5907 5907 5906 5906 5906 5906 5906 5905 5905 5904 5904 5904 5903 5903 5903 5902 5902 5902
5900 5902 5904 5905 5906 5907 5908 5908 5908 5908 5908 5908 5907 5907 5907 5906 5907 5906 5906 5906 5906 5906 5906 5906 5906 5907 5907 5907 5907 5907 5907 5907 5907 5906 5906 5906 5905 5905 5905 5905 5904 5903 5903 5902 5902 5902 5902 5902 5902
5899 5901 5904 5905 5906 5906 5908 5907 5906 5907 5908 5908 5907 5907 5907 5907 5907 5907 5907 5906 5906 5906 5907 5907 5907 5907 5907 5907 5907 5907 5907 5906 5906 5906 5906 5905 5905 5904 5904 5904 5903 5903 5902 5902 5901 5901 5901 5901 5901
5898 5900 5903 5905 5905 5906 5906 5906 5906 5907 5908 5907 5907 5907 5907 5907 5907 5907 5907 5906 5906 5906 5907 5907 5907 5907 5907 5906 5906 5906 5906 5906 5905 5905 5905 5905 5904 5904 5903 5903 5902 5902 5901 5901 5901 5900 5900 5900 5900
5898 5900 5902 5904 5905 5905 5906 5905 5906 5906 5907 5907 5907 5907 5907 5907 5907 5907 5906 5906 5906 5906 5906 5907 5906 5906 5906 5906 5905 5905 5905 5905 5904 5904 5904 5904 5903 5903 5902 5902 5901 5901 5900 5900 5900 5900 5900 5899 5899
5895 5899 5901 5904 5904 5904 5905 5905 5906 5906 5906 5906 5905 5905 5905 5906 5906 5906 5906 5906 5906 5906 5906 5906 5906 5905 5905 5905 5905 5904 5904 5904 5903 5903 5903 5902 5902 5901 5901 5901 5900 5900 5899 5899 5898 5898 5898 5898 5898
5891 5895 5899 5903 5903 5903 5904 5905 5904 5904 5906 5905 5905 5905 5904 5904 5905 5906 5905 5905 5905 5905 5905 5905 5904 5904 5904 5904 5903 5903 5903 5902 5902 5902 5901 5901 5900 5900 5900 5899 5899 5899 5898 5897 5897 5897 5897 5897 5897
5889 5893 5897 5900 5901 5901 5903 5903 5904 5903 5905 5905 5904 5904 5904 5904 5905 5905 5904 5904 5904 5904 5904 5904 5903 5903 5902 5902 5902 5901 5901 5901 5900 5900 5900 5899 5899 5899 5899 5898 5898 5897 5897 5896 5896 5895 5895 5895 5895
5887 5890 5893 5896 5898 5900 5901 5902 5902 5901 5902 5902 5903 5903 5902 5903 5903 5903 5903 5903 5903 5903 5903 5902 5902 5901 5901 5901 5900 5900 5899 5899 5899 5898 5898 5898 5898 5897 5897 5897 5896 5896 5895 5895 5894 5894 5894 5894 5894
5884 5887 5890 5892 5894 5897 5898 5900 5901 5899 5898 5899 5900 5900 5900 5901 5901 5901 5902 5901 5901 5901 5901 5900 5900 5900 5900 5899 5898 5898 5898 5897 5897 5896 5896 5897 5896 5896 5896 5895 5894 5894 5893 5893 5893 5893 5892 5892 5892
5879 5883 5886 5888 5891 5893 5895 5897 5897 5897 5895 5896 5897 5898 5896 5897 5899 5899 5900 5899 5899 5899 5899 5899 5898 5898 5898 5897 5896 5896 5895 5895 5894 5894 5894 5894 5894 5894 5894 5893 5892 5892 5891 5890 5890 5890 5890 5890 5890
5875 5880 5883 5885 5887 5890 5893 5894 5894 5893 5892 5893 5894 5895 5895 5896 5896 5897 5897 5898 5897 5897 5897 5897 5896 5896 5895 5895 5894 5894 5893 5892 5892 5892 5892 5892 5892 5892 5892 5891 5890 5889 5889 5888 5888 5888 5887 5887 5887
5871 5876 5881 5884 5886 5888 5889 5890 5891 5891 5890 5891 5892 5893 5893 5894 5894 5895 5895 5895 5895 5894 5894 5894 5894 5893 5893 5892 5892 5891 5890 5890 5890 5889 5890 5890 5890 5889 5889 5889 5888 5887 5887 5886 5886 5885 5885 5884 5884
5867 5871 5877 5881 5883 5885 5885 5885 5886 5887 5888 5889 5890 5891 5891 5891 5892 5892 5892 5892 5892 5892 5891 5891 5891 5891 5890 5890 5889 5889 5888 5888 5887 5887 5887 5887 5887 5887 5887 5886 5886 5885 5884 5884 5883 5883 5882 5882 5881
5864 5868 5872 5875 5878 5880 5882 5882 5881 5882 5884 5886 5887 5887 5888 5889 5889 5890 5889 5890 5890 5889 5889 5889 5889 5888 5888 5887 5887 5887 5886 5886 5885 5885 5884 5884 5884 5884 5884 5883 5883 5882 5882 5881 5881 5880 5880 5879 5879
5859 5863 5867 5870 5874 5876 5878 5880 5877 5877 5880 5882 5883 5884 5885 5886 5886 5886 5887 5887 5887 5886 5886 5886 5886 5885 5885 5885 5885 5885 5884 5884 5883 5883 5882 5882 5881 5881 5881 5881 5880 5880 5879 5878 5878 5877 5877 5876 5876
5855 5859 5863 5866 5869 5871 5872 5874 5870 5871 5876 5878 5880 5881 5882 5883 5883 5883 5884 5884 5884 5884 5884 5883 5883 5883 5883 5883 5883 5883 5882 5882 5881 5881 5880 5879 5878 5878 5878 5878 5877 5877 5876 5876 5875 5874 5874 5873 5873